This is the latest recevied weather packets stored in our database for station/object N5ATR. If no packets are shown the sender has not sent any weather packets the latest 10 day(s).
| Time | Temp. | Humidity | Pressure | Rain* | Wind** | Luminosity | Snow |
|---|---|---|---|---|---|---|---|
| 1788206330 | 28.89° C | 34% | 1023 hPa | 0 mm | - | 357 W/m² | - |
| 1788206026 | 28.33° C | 35% | 1023.1 hPa | 0 mm | - | 754 W/m² | - |
| 1788205722 | 28.89° C | 34% | 1023.3 hPa | 0 mm | - | 645 W/m² | - |
| 1788205417 | 28.33° C | 35% | 1023.1 hPa | 0 mm | - | 604 W/m² | - |
| 1788205116 | 28.33° C | 35% | 1023.5 hPa | 0 mm | - | 717 W/m² | - |
| 1788204811 | 28.33° C | 35% | 1023.4 hPa | 0 mm | - | 646 W/m² | - |
| 1788204507 | 27.78° C | 35% | 1023.4 hPa | 0 mm | - | 550 W/m² | - |
| 1788204206 | 26.67° C | 38% | 1023.3 hPa | 0 mm | - | 472 W/m² | - |
| 1788203902 | 26.67° C | 38% | 1023.6 hPa | 0 mm | - | 235 W/m² | - |
| 1788203598 | 27.78° C | 36% | 1023.9 hPa | 0 mm | - | 334 W/m² | - |
| 1788203294 | 27.78° C | 36% | 1023.8 hPa | 0 mm | - | 359 W/m² | - |
| 1788202994 | 27.22° C | 36% | 1023.8 hPa | 0 mm | - | 465 W/m² | - |
| 1788202693 | 27.22° C | 35% | 1023.9 hPa | 0 mm | - | 326 W/m² | - |
| 1788202389 | 27.22° C | 35% | 1024 hPa | 0 mm | - | 250 W/m² | - |
| 1788202088 | 27.78° C | 34% | 1024 hPa | 0 mm | - | 190 W/m² | - |
| 1788201784 | 27.22° C | 34% | 1023.9 hPa | 0 mm | - | 445 W/m² | - |
| 1788201479 | 27.78° C | 34% | 1023.9 hPa | 0 mm | - | 313 W/m² | - |
| 1788201178 | 26.67° C | 34% | 1024.2 hPa | 0 mm | - | 618 W/m² | - |
| 1788200877 | 27.22° C | 34% | 1024.1 hPa | 0 mm | - | 287 W/m² | - |
| 1788200573 | 26.67° C | 35% | 1024.2 hPa | 0 mm | - | 392 W/m² | - |
| 1788200268 | 27.22° C | 35% | 1024.2 hPa | 0 mm | - | 464 W/m² | - |
| 1788199963 | 27.22° C | 35% | 1024.1 hPa | 0 mm | - | 302 W/m² | - |
| 1788199663 | 26.67° C | 35% | 1024.4 hPa | 0 mm | - | 366 W/m² | - |
| 1788199358 | 26.11° C | 36% | 1024.2 hPa | 0 mm | - | 250 W/m² | - |
| 1788199057 | 26.67° C | 35% | 1024.4 hPa | 0 mm | - | 310 W/m² | - |
* Rain latest hour (hover to see other rain measurements)
** Current wind speed in m/s (hover to see current wind gust speed)